Time,TemperatureF,DewpointF,PressureIn,WindDirection,WindDirectionDegrees,WindSpeedMPH,WindSpeedGustMPH,Humidity,HourlyPrecipIn,Conditions,Clouds,dailyrainin,SoftwareType,DateUTC
2013-08-17 00:00:00,75.7,63.5,29.99,North,8,4.0,4.0,66,0.00,,,0.00,Wunderground v.1.15,2013-08-17 05:00:00,
2013-08-17 00:06:00,75.6,63.4,29.99,NNE,23,4.0,17.0,66,0.00,,,0.00,Wunderground v.1.15,2013-08-17 05:06:00,
2013-08-17 00:12:00,75.5,63.8,30.00,NNE,23,4.0,17.0,67,0.00,,,0.00,Wunderground v.1.15,2013-08-17 05:12:00,
2013-08-17 00:20:00,75.5,63.8,29.99,North,5,4.0,4.0,67,0.00,,,0.00,Wunderground v.1.15,2013-08-17 05:20:00,
2013-08-17 00:26:00,75.4,63.7,30.00,NNE,18,4.0,17.0,67,0.00,,,0.00,Wunderground v.1.15,2013-08-17 05:26:00,
2013-08-17 00:32:00,75.4,63.2,29.99,NNW,345,4.0,17.0,66,0.00,,,0.00,Wunderground v.1.15,2013-08-17 05:32:00,
2013-08-17 00:38:00,75.5,63.3,29.99,NE,44,3.0,17.0,66,0.00,,,0.00,Wunderground v.1.15,2013-08-17 05:38:00,
2013-08-17 00:44:00,75.6,63.4,30.00,NE,40,3.0,17.0,66,0.00,,,0.00,Wunderground v.1.15,2013-08-17 05:44:00,
2013-08-17 00:50:00,75.6,63.4,30.00,ENE,72,2.0,17.0,66,0.00,,,0.00,Wunderground v.1.15,2013-08-17 05:50:00,
2013-08-17 00:56:00,75.7,63.5,29.99,NNE,16,2.0,17.0,66,0.00,,,0.00,Wunderground v.1.15,2013-08-17 05:56:00,
2013-08-17 01:02:00,75.5,63.3,29.99,NE,56,2.0,17.0,66,0.00,,,0.00,Wunderground v.1.15,2013-08-17 06:02:00,
2013-08-17 01:08:00,75.3,63.6,30.00,ESE,105,1.0,17.0,67,0.00,,,0.00,Wunderground v.1.15,2013-08-17 06:08:00,
2013-08-17 01:14:00,75.0,63.7,29.99,SE,131,1.0,17.0,68,0.00,,,0.00,Wunderground v.1.15,2013-08-17 06:14:00,
2013-08-17 01:20:00,74.6,63.8,29.99,SE,137,2.0,2.0,69,0.00,,,0.00,Wunderground v.1.15,2013-08-17 06:20:00,
2013-08-17 01:26:00,74.2,63.4,29.99,SE,146,2.0,17.0,69,0.00,,,0.00,Wunderground v.1.15,2013-08-17 06:26:00,
2013-08-17 01:32:00,73.5,63.5,29.99,SE,138,2.0,17.0,71,0.00,,,0.00,Wunderground v.1.15,2013-08-17 06:32:00,
2013-08-17 01:38:00,73.0,63.4,29.99,SE,125,2.0,17.0,72,0.00,,,0.00,Wunderground v.1.15,2013-08-17 06:38:00,
2013-08-17 01:44:00,72.8,63.6,29.99,SE,145,3.0,17.0,73,0.00,,,0.00,Wunderground v.1.15,2013-08-17 06:44:00,
2013-08-17 01:50:00,72.6,63.8,29.99,SE,129,2.0,2.0,74,0.00,,,0.00,Wunderground v.1.15,2013-08-17 06:50:00,
2013-08-17 01:56:00,72.5,64.1,29.99,SE,130,2.0,17.0,75,0.00,,,0.00,Wunderground v.1.15,2013-08-17 06:56:00,
2013-08-17 02:02:00,72.4,64.0,29.99,SE,129,2.0,17.0,75,0.00,,,0.00,Wunderground v.1.15,2013-08-17 07:02:00,
2013-08-17 02:08:00,72.4,64.4,29.99,SE,131,2.0,17.0,76,0.00,,,0.00,Wunderground v.1.15,2013-08-17 07:08:00,
2013-08-17 02:14:00,72.4,64.8,29.99,ESE,121,2.0,17.0,77,0.00,,,0.00,Wunderground v.1.15,2013-08-17 07:14:00,
2013-08-17 02:20:00,72.2,64.6,29.98,ESE,122,2.0,17.0,77,0.00,,,0.00,Wunderground v.1.15,2013-08-17 07:20:00,
2013-08-17 02:26:00,72.1,64.9,29.98,SSE,158,2.0,17.0,78,0.00,,,0.00,Wunderground v.1.15,2013-08-17 07:26:00,
2013-08-17 02:32:00,71.8,64.6,29.98,SE,136,2.0,17.0,78,0.00,,,0.00,Wunderground v.1.15,2013-08-17 07:32:00,
2013-08-17 02:38:00,71.6,64.7,29.98,SE,127,1.0,17.0,79,0.00,,,0.00,Wunderground v.1.15,2013-08-17 07:38:00,
2013-08-17 02:44:00,71.5,64.6,29.98,SE,134,2.0,17.0,79,0.00,,,0.00,Wunderground v.1.15,2013-08-17 07:44:00,
2013-08-17 02:50:00,71.5,65.0,29.98,SE,128,2.0,17.0,80,0.00,,,0.00,Wunderground v.1.15,2013-08-17 07:50:00,
2013-08-17 02:56:00,71.5,65.0,29.98,SE,129,2.0,17.0,80,0.00,,,0.00,Wunderground v.1.15,2013-08-17 07:56:00,
2013-08-17 03:02:00,71.6,65.1,29.98,ESE,120,2.0,17.0,80,0.00,,,0.00,Wunderground v.1.15,2013-08-17 08:02:00,
2013-08-17 03:08:00,71.6,65.5,29.98,ESE,117,2.0,17.0,81,0.00,,,0.00,Wunderground v.1.15,2013-08-17 08:08:00,
2013-08-17 03:14:00,71.5,65.4,29.98,SE,130,1.0,17.0,81,0.00,,,0.00,Wunderground v.1.15,2013-08-17 08:14:00,
2013-08-17 03:20:00,70.7,64.6,29.98,SE,129,0.0,17.0,81,0.00,,,0.00,Wunderground v.1.15,2013-08-17 08:20:00,
2013-08-17 03:26:00,70.2,64.4,29.98,SE,130,0.0,17.0,82,0.00,,,0.00,Wunderground v.1.15,2013-08-17 08:26:00,
2013-08-17 03:32:00,70.2,65.1,29.98,SE,130,0.0,17.0,84,0.00,,,0.00,Wunderground v.1.15,2013-08-17 08:32:00,
2013-08-17 03:38:00,70.3,65.2,29.98,SE,129,1.0,17.0,84,0.00,,,0.00,Wunderground v.1.15,2013-08-17 08:38:00,
2013-08-17 03:44:00,70.3,65.2,29.98,SSE,148,1.0,17.0,84,0.00,,,0.00,Wunderground v.1.15,2013-08-17 08:44:00,
2013-08-17 03:50:00,70.3,65.6,29.98,SE,146,1.0,17.0,85,0.00,,,0.00,Wunderground v.1.15,2013-08-17 08:50:00,
2013-08-17 03:56:00,70.6,66.2,29.98,SE,142,1.0,17.0,86,0.00,,,0.00,Wunderground v.1.15,2013-08-17 08:56:00,
2013-08-17 04:02:00,70.8,66.4,29.98,SE,143,1.0,17.0,86,0.00,,,0.00,Wunderground v.1.15,2013-08-17 09:02:00,
2013-08-17 04:09:00,70.9,66.5,29.98,SE,142,1.0,17.0,86,0.00,,,0.00,Wunderground v.1.15,2013-08-17 09:09:00,
2013-08-17 04:15:00,70.9,66.8,29.97,SSE,149,1.0,17.0,87,0.00,,,0.00,Wunderground v.1.15,2013-08-17 09:15:00,
2013-08-17 04:20:00,70.8,67.1,29.98,SE,141,1.0,17.0,88,0.00,,,0.00,Wunderground v.1.15,2013-08-17 09:20:00,
2013-08-17 04:26:00,70.8,67.1,29.98,SSE,156,1.0,17.0,88,0.00,,,0.00,Wunderground v.1.15,2013-08-17 09:26:00,
2013-08-17 04:32:00,70.7,67.0,29.97,South,190,1.0,17.0,88,0.00,,,0.00,Wunderground v.1.15,2013-08-17 09:32:00,
2013-08-17 04:38:00,70.6,66.9,29.97,South,190,1.0,17.0,88,0.00,,,0.00,Wunderground v.1.15,2013-08-17 09:38:00,
2013-08-17 04:44:00,70.5,66.8,29.97,South,190,1.0,17.0,88,0.00,,,0.00,Wunderground v.1.15,2013-08-17 09:44:00,
2013-08-17 04:50:00,70.4,66.7,29.97,South,190,1.0,1.0,88,0.00,,,0.00,Wunderground v.1.15,2013-08-17 09:50:00,
2013-08-17 04:56:00,70.6,67.2,29.97,South,190,1.0,17.0,89,0.00,,,0.00,Wunderground v.1.15,2013-08-17 09:56:00,
2013-08-17 05:02:00,70.7,67.3,29.97,South,190,1.0,17.0,89,0.00,,,0.00,Wunderground v.1.15,2013-08-17 10:02:00,
2013-08-17 05:08:00,70.7,67.6,29.97,South,190,1.0,17.0,90,0.00,,,0.00,Wunderground v.1.15,2013-08-17 10:08:00,
2013-08-17 05:14:00,70.7,67.6,29.97,South,190,1.0,17.0,90,0.00,,,0.00,Wunderground v.1.15,2013-08-17 10:14:00,
2013-08-17 05:20:00,70.6,67.8,29.98,South,190,1.0,1.0,91,0.00,,,0.00,Wunderground v.1.15,2013-08-17 10:20:00,
2013-08-17 05:26:00,70.8,68.4,29.98,South,190,0.0,17.0,92,0.00,,,0.00,Wunderground v.1.15,2013-08-17 10:26:00,
2013-08-17 05:32:00,71.1,68.7,29.98,South,190,0.0,17.0,92,0.00,,,0.00,Wunderground v.1.15,2013-08-17 10:32:00,
2013-08-17 05:38:00,71.3,68.9,29.98,South,190,0.0,17.0,92,0.00,,,0.00,Wunderground v.1.15,2013-08-17 10:38:00,
2013-08-17 05:44:00,71.2,68.8,29.98,South,190,0.0,17.0,92,0.00,,,0.00,Wunderground v.1.15,2013-08-17 10:44:00,
2013-08-17 05:50:00,70.9,68.5,29.98,South,190,0.0,17.0,92,0.00,,,0.00,Wunderground v.1.15,2013-08-17 10:50:00,
2013-08-17 05:56:00,69.7,66.6,29.98,North,358,1.0,17.0,90,0.00,,,0.00,Wunderground v.1.15,2013-08-17 10:56:00,
2013-08-17 06:02:00,68.4,65.4,29.98,North,4,3.0,5.0,90,0.00,,,0.00,Wunderground v.1.15,2013-08-17 11:02:00,
2013-08-17 06:08:00,67.9,64.2,29.98,North,6,4.0,5.0,88,0.00,,,0.00,Wunderground v.1.15,2013-08-17 11:08:00,
2013-08-17 06:14:00,67.5,63.8,29.98,North,9,4.0,4.0,88,0.00,,,0.00,Wunderground v.1.15,2013-08-17 11:14:00,
2013-08-17 06:20:00,66.9,63.6,29.98,North,11,4.0,4.0,89,0.00,,,0.00,Wunderground v.1.15,2013-08-17 11:20:00,
2013-08-17 06:26:00,66.4,63.1,29.98,North,1,4.0,4.0,89,0.00,,,0.00,Wunderground v.1.15,2013-08-17 11:26:00,
2013-08-17 06:32:00,66.0,63.0,29.98,North,5,4.0,4.0,90,0.00,,,0.00,Wunderground v.1.15,2013-08-17 11:32:00,
2013-08-17 06:38:00,65.8,62.8,29.98,North,11,3.0,4.0,90,0.00,,,0.00,Wunderground v.1.15,2013-08-17 11:38:00,
2013-08-17 06:44:00,65.6,62.9,29.99,NNE,28,3.0,4.0,91,0.00,,,0.00,Wunderground v.1.15,2013-08-17 11:44:00,
2013-08-17 06:50:00,65.7,63.0,29.99,NNE,18,3.0,3.0,91,0.00,,,0.00,Wunderground v.1.15,2013-08-17 11:50:00,
2013-08-17 06:58:00,66.4,64.0,29.99,NNE,23,3.0,4.0,92,0.00,,,0.00,Wunderground v.1.15,2013-08-17 11:58:00,
2013-08-17 07:04:00,67.0,64.9,29.99,North,9,2.0,4.0,93,0.00,,,0.00,Wunderground v.1.15,2013-08-17 12:04:00,
2013-08-17 07:06:00,67.2,64.8,29.99,North,9,2.0,4.0,92,0.00,,,0.00,Wunderground v.1.15,2013-08-17 12:06:00,
2013-08-17 07:12:00,67.4,65.0,29.99,NNE,19,2.0,4.0,92,0.00,,,0.00,Wunderground v.1.15,2013-08-17 12:12:00,
2013-08-17 07:18:00,67.7,65.6,30.00,NE,39,1.0,4.0,93,0.00,,,0.00,Wunderground v.1.15,2013-08-17 12:18:00,
2013-08-17 07:24:00,68.0,65.6,29.99,North,8,1.0,4.0,92,0.00,,,0.00,Wunderground v.1.15,2013-08-17 12:24:00,
2013-08-17 07:30:00,68.2,65.8,30.00,NNE,20,1.0,4.0,92,0.00,,,0.00,Wunderground v.1.15,2013-08-17 12:30:00,
2013-08-17 07:36:00,68.6,66.2,30.00,NNE,23,1.0,4.0,92,0.00,,,0.00,Wunderground v.1.15,2013-08-17 12:36:00,
2013-08-17 07:42:00,68.9,66.5,30.00,NNE,23,0.0,4.0,92,0.00,,,0.00,Wunderground v.1.15,2013-08-17 12:42:00,
2013-08-17 07:48:00,69.6,67.5,30.00,NNE,23,0.0,4.0,93,0.00,,,0.00,Wunderground v.1.15,2013-08-17 12:48:00,
2013-08-17 07:54:00,70.6,68.2,30.00,NNE,23,0.0,4.0,92,0.00,,,0.00,Wunderground v.1.15,2013-08-17 12:54:00,
2013-08-17 08:00:00,71.4,68.6,30.01,NE,46,0.0,4.0,91,0.00,,,0.00,Wunderground v.1.15,2013-08-17 13:00:00,
2013-08-17 08:06:00,72.1,68.7,30.01,NE,46,0.0,4.0,89,0.00,,,0.00,Wunderground v.1.15,2013-08-17 13:06:00,
2013-08-17 08:12:00,71.9,67.5,30.02,North,358,1.0,4.0,86,0.00,,,0.00,Wunderground v.1.15,2013-08-17 13:12:00,
2013-08-17 08:18:00,71.1,67.0,30.02,North,350,1.0,4.0,87,0.00,,,0.00,Wunderground v.1.15,2013-08-17 13:18:00,
2013-08-17 08:24:00,71.3,67.6,30.02,North,351,2.0,4.0,88,0.00,,,0.00,Wunderground v.1.15,2013-08-17 13:24:00,
2013-08-17 08:30:00,72.1,68.3,30.02,NNE,20,2.0,2.0,88,0.00,,,0.00,Wunderground v.1.15,2013-08-17 13:30:00,
2013-08-17 08:36:00,73.0,68.6,30.02,NNE,13,2.0,4.0,86,0.00,,,0.00,Wunderground v.1.15,2013-08-17 13:36:00,
2013-08-17 08:42:00,73.7,68.6,30.02,NE,50,2.0,4.0,84,0.00,,,0.00,Wunderground v.1.15,2013-08-17 13:42:00,
2013-08-17 08:48:00,74.0,68.9,30.02,NE,35,2.0,4.0,84,0.00,,,0.00,Wunderground v.1.15,2013-08-17 13:48:00,
2013-08-17 08:54:00,74.3,68.8,30.02,NE,53,2.0,4.0,83,0.00,,,0.00,Wunderground v.1.15,2013-08-17 13:54:00,
2013-08-17 09:00:00,74.4,68.9,30.02,North,8,3.0,4.0,83,0.00,,,0.00,Wunderground v.1.15,2013-08-17 14:00:00,
2013-08-17 09:06:00,74.8,69.3,30.02,NNW,345,3.0,4.0,83,0.00,,,0.00,Wunderground v.1.15,2013-08-17 14:06:00,
2013-08-17 09:12:00,74.9,69.0,30.02,NNE,23,4.0,6.0,82,0.00,,,0.00,Wunderground v.1.15,2013-08-17 14:12:00,
2013-08-17 09:18:00,75.3,69.4,30.02,NNW,339,4.0,6.0,82,0.00,,,0.00,Wunderground v.1.15,2013-08-17 14:18:00,
2013-08-17 09:24:00,75.5,69.3,30.02,ENE,58,4.0,7.0,81,0.00,,,0.00,Wunderground v.1.15,2013-08-17 14:24:00,
2013-08-17 09:30:00,75.9,69.3,30.02,NNE,15,4.0,6.0,80,0.00,,,0.00,Wunderground v.1.15,2013-08-17 14:30:00,
2013-08-17 09:36:00,76.2,69.6,30.02,SE,124,4.0,6.0,80,0.00,,,0.00,Wunderground v.1.15,2013-08-17 14:36:00,
2013-08-17 09:42:00,77.2,69.8,30.02,East,96,2.0,4.0,78,0.00,,,0.00,Wunderground v.1.15,2013-08-17 14:42:00,
2013-08-17 09:48:00,77.9,70.1,30.02,NNE,33,1.0,4.0,77,0.00,,,0.00,Wunderground v.1.15,2013-08-17 14:48:00,
2013-08-17 09:54:00,77.6,69.8,30.02,NNE,30,3.0,7.0,77,0.00,,,0.00,Wunderground v.1.15,2013-08-17 14:54:00,
2013-08-17 10:00:00,77.9,69.7,30.02,North,353,4.0,4.0,76,0.00,,,0.00,Wunderground v.1.15,2013-08-17 15:00:00,
2013-08-17 10:06:00,78.1,69.9,30.02,NNE,20,2.0,4.0,76,0.00,,,0.00,Wunderground v.1.15,2013-08-17 15:06:00,
2013-08-17 10:12:00,78.5,69.9,30.02,North,1,2.0,5.0,75,0.00,,,0.00,Wunderground v.1.15,2013-08-17 15:12:00,
2013-08-17 10:18:00,78.7,70.1,30.02,NNW,340,3.0,7.0,75,0.00,,,0.00,Wunderground v.1.15,2013-08-17 15:18:00,
2013-08-17 10:24:00,79.1,69.7,30.02,NNW,328,4.0,5.0,73,0.00,,,0.00,Wunderground v.1.15,2013-08-17 15:24:00,
2013-08-17 10:30:00,79.4,70.0,30.02,NNE,33,3.0,4.0,73,0.00,,,0.00,Wunderground v.1.15,2013-08-17 15:30:00,
2013-08-17 10:36:00,80.6,69.9,30.02,WSW,251,1.0,4.0,70,0.00,,,0.00,Wunderground v.1.15,2013-08-17 15:36:00,
2013-08-17 10:42:00,81.0,69.4,30.02,NNE,12,2.0,4.0,68,0.00,,,0.00,Wunderground v.1.15,2013-08-17 15:42:00,
2013-08-17 10:48:00,80.7,69.6,30.02,West,272,3.0,6.0,69,0.00,,,0.00,Wunderground v.1.15,2013-08-17 15:48:00,
2013-08-17 10:54:00,81.2,70.1,30.02,WNW,301,2.0,5.0,69,0.00,,,0.00,Wunderground v.1.15,2013-08-17 15:54:00,
2013-08-17 11:00:00,81.2,70.1,30.02,NW,323,3.0,6.0,69,0.00,,,0.00,Wunderground v.1.15,2013-08-17 16:00:00,
2013-08-17 11:06:00,81.3,69.7,30.02,NNW,333,4.0,6.0,68,0.00,,,0.00,Wunderground v.1.15,2013-08-17 16:06:00,
2013-08-17 11:12:00,82.0,69.5,30.02,NW,308,4.0,5.0,66,0.00,,,0.00,Wunderground v.1.15,2013-08-17 16:12:00,
2013-08-17 11:18:00,82.1,68.7,30.02,North,359,4.0,5.0,64,0.00,,,0.00,Wunderground v.1.15,2013-08-17 16:18:00,
2013-08-17 11:24:00,82.0,67.2,30.02,NNE,30,4.0,7.0,61,0.00,,,0.00,Wunderground v.1.15,2013-08-17 16:24:00,
2013-08-17 11:30:00,82.2,67.9,30.01,NNW,344,4.0,4.0,62,0.00,,,0.00,Wunderground v.1.15,2013-08-17 16:30:00,
2013-08-17 11:36:00,83.1,67.3,30.02,North,352,3.0,5.0,59,0.00,,,0.00,Wunderground v.1.15,2013-08-17 16:36:00,
2013-08-17 11:42:00,83.4,65.0,30.01,WNW,284,5.0,10.0,54,0.00,,,0.00,Wunderground v.1.15,2013-08-17 16:42:00,
2013-08-17 11:48:00,83.2,66.4,30.01,SSE,164,5.0,10.0,57,0.00,,,0.00,Wunderground v.1.15,2013-08-17 16:48:00,
2013-08-17 11:54:00,83.7,66.8,30.01,NNE,20,4.0,5.0,57,0.00,,,0.00,Wunderground v.1.15,2013-08-17 16:54:00,
2013-08-17 12:00:00,83.8,65.9,30.00,NW,323,5.0,5.0,55,0.00,,,0.00,Wunderground v.1.15,2013-08-17 17:00:00,
2013-08-17 12:06:00,84.4,67.0,30.00,NE,37,5.0,6.0,56,0.00,,,0.00,Wunderground v.1.15,2013-08-17 17:06:00,
2013-08-17 12:12:00,84.8,65.8,30.00,North,353,5.0,14.0,53,0.00,,,0.00,Wunderground v.1.15,2013-08-17 17:12:00,
2013-08-17 12:18:00,85.2,65.6,30.00,NNE,20,5.0,14.0,52,0.00,,,0.00,Wunderground v.1.15,2013-08-17 17:18:00,
2013-08-17 12:24:00,86.0,64.6,30.00,NE,49,4.0,8.0,49,0.00,,,0.00,Wunderground v.1.15,2013-08-17 17:24:00,
2013-08-17 12:30:00,85.9,66.2,30.00,North,5,4.0,8.0,52,0.00,,,0.00,Wunderground v.1.15,2013-08-17 17:30:00,
2013-08-17 12:36:00,84.9,65.9,30.00,NE,42,6.0,8.0,53,0.00,,,0.00,Wunderground v.1.15,2013-08-17 17:36:00,
2013-08-17 12:42:00,86.5,66.8,30.00,East,95,4.0,7.0,52,0.00,,,0.00,Wunderground v.1.15,2013-08-17 17:42:00,
2013-08-17 12:54:00,86.1,66.4,29.99,SE,130,5.0,10.0,52,0.00,,,0.00,Wunderground v.1.15,2013-08-17 17:54:00,
2013-08-17 13:00:00,86.5,65.1,29.99,NNE,15,4.0,5.0,49,0.00,,,0.00,Wunderground v.1.15,2013-08-17 18:00:00,
2013-08-17 13:06:00,86.3,66.0,29.99,WNW,298,5.0,6.0,51,0.00,,,0.00,Wunderground v.1.15,2013-08-17 18:06:00,
2013-08-17 13:12:00,86.3,66.0,29.99,NNW,327,4.0,5.0,51,0.00,,,0.00,Wunderground v.1.15,2013-08-17 18:12:00,
2013-08-17 13:18:00,86.9,65.4,29.98,East,95,5.0,6.0,49,0.00,,,0.00,Wunderground v.1.15,2013-08-17 18:18:00,
2013-08-17 13:24:00,87.2,65.1,29.98,NW,304,5.0,5.0,48,0.00,,,0.00,Wunderground v.1.15,2013-08-17 18:24:00,
2013-08-17 13:30:00,87.5,64.2,29.98,North,359,6.0,10.0,46,0.00,,,0.00,Wunderground v.1.15,2013-08-17 18:30:00,
2013-08-17 13:36:00,87.3,64.6,29.98,North,11,6.0,10.0,47,0.00,,,0.00,Wunderground v.1.15,2013-08-17 18:36:00,
2013-08-17 13:42:00,87.3,64.6,29.97,NNE,26,5.0,8.0,47,0.00,,,0.00,Wunderground v.1.15,2013-08-17 18:42:00,
2013-08-17 13:48:00,87.7,64.4,29.97,North,355,6.0,8.0,46,0.00,,,0.00,Wunderground v.1.15,2013-08-17 18:48:00,
2013-08-17 13:54:00,88.1,65.3,29.96,East,79,3.0,5.0,47,0.00,,,0.00,Wunderground v.1.15,2013-08-17 18:54:00,
2013-08-17 14:00:00,88.1,63.4,29.97,NNE,23,4.0,4.0,44,0.00,,,0.00,Wunderground v.1.15,2013-08-17 19:00:00,
2013-08-17 14:06:00,88.5,65.1,29.96,ESE,115,6.0,8.0,46,0.00,,,0.00,Wunderground v.1.15,2013-08-17 19:06:00,
2013-08-17 14:12:00,88.7,62.7,29.96,ESE,110,5.0,8.0,42,0.00,,,0.00,Wunderground v.1.15,2013-08-17 19:12:00,
2013-08-17 14:18:00,88.4,61.0,29.96,NNE,22,7.0,13.0,40,0.00,,,0.00,Wunderground v.1.15,2013-08-17 19:18:00,
2013-08-17 14:24:00,88.4,62.4,29.95,East,82,8.0,8.0,42,0.00,,,0.00,Wunderground v.1.15,2013-08-17 19:24:00,
2013-08-17 14:34:00,89.1,61.6,29.95,North,1,6.0,14.0,40,0.00,,,0.00,Wunderground v.1.15,2013-08-17 19:34:00,
2013-08-17 14:40:00,89.4,63.3,29.95,NNW,333,7.0,7.0,42,0.00,,,0.00,Wunderground v.1.15,2013-08-17 19:40:00,
2013-08-17 14:46:00,90.1,63.9,29.95,North,349,5.0,11.0,42,0.00,,,0.00,Wunderground v.1.15,2013-08-17 19:46:00,
2013-08-17 14:52:00,90.5,60.7,29.95,NE,40,5.0,10.0,37,0.00,,,0.00,Wunderground v.1.15,2013-08-17 19:52:00,
2013-08-17 14:58:00,90.0,61.7,29.94,NNE,27,7.0,13.0,39,0.00,,,0.00,Wunderground v.1.15,2013-08-17 19:58:00,
2013-08-17 15:04:00,89.6,64.1,29.94,NNE,18,6.0,7.0,43,0.00,,,0.00,Wunderground v.1.15,2013-08-17 20:04:00,
2013-08-17 15:10:00,89.2,60.3,29.94,NNE,29,7.0,8.0,38,0.00,,,0.00,Wunderground v.1.15,2013-08-17 20:10:00,
2013-08-17 15:16:00,89.5,61.3,29.93,NNE,20,9.0,9.0,39,0.00,,,0.00,Wunderground v.1.15,2013-08-17 20:16:00,
2013-08-17 15:22:00,89.5,59.0,29.93,NE,44,8.0,9.0,36,0.00,,,0.00,Wunderground v.1.15,2013-08-17 20:22:00,
2013-08-17 15:28:00,89.9,60.1,29.93,North,358,7.0,12.0,37,0.00,,,0.00,Wunderground v.1.15,2013-08-17 20:28:00,
2013-08-17 15:34:00,89.7,60.7,29.93,NNE,33,7.0,7.0,38,0.00,,,0.00,Wunderground v.1.15,2013-08-17 20:34:00,
2013-08-17 15:40:00,89.9,59.4,29.92,North,360,7.0,13.0,36,0.00,,,0.00,Wunderground v.1.15,2013-08-17 20:40:00,
2013-08-17 15:46:00,90.2,60.4,29.92,NNW,347,7.0,13.0,37,0.00,,,0.00,Wunderground v.1.15,2013-08-17 20:46:00,
2013-08-17 15:52:00,90.7,59.3,29.92,North,6,5.0,11.0,35,0.00,,,0.00,Wunderground v.1.15,2013-08-17 20:52:00,
2013-08-17 15:58:00,90.9,61.0,29.92,NW,319,6.0,11.0,37,0.00,,,0.00,Wunderground v.1.15,2013-08-17 20:58:00,
2013-08-17 16:04:00,90.5,60.7,29.92,ENE,57,7.0,7.0,37,0.00,,,0.00,Wunderground v.1.15,2013-08-17 21:04:00,
2013-08-17 16:10:00,90.4,59.0,29.91,North,358,8.0,12.0,35,0.00,,,0.00,Wunderground v.1.15,2013-08-17 21:10:00,
2013-08-17 16:16:00,90.4,59.8,29.91,NNE,12,7.0,12.0,36,0.00,,,0.00,Wunderground v.1.15,2013-08-17 21:16:00,
2013-08-17 16:22:00,90.8,60.2,29.91,NW,313,5.0,6.0,36,0.00,,,0.00,Wunderground v.1.15,2013-08-17 21:22:00,
2013-08-17 16:28:00,91.3,59.8,29.91,NE,37,5.0,8.0,35,0.00,,,0.00,Wunderground v.1.15,2013-08-17 21:28:00,
2013-08-17 16:34:00,90.7,60.1,29.91,North,355,6.0,9.0,36,0.00,,,0.00,Wunderground v.1.15,2013-08-17 21:34:00,
2013-08-17 16:40:00,90.8,60.2,29.91,North,8,5.0,8.0,36,0.00,,,0.00,Wunderground v.1.15,2013-08-17 21:40:00,
2013-08-17 16:46:00,91.1,59.6,29.91,ENE,63,5.0,9.0,35,0.00,,,0.00,Wunderground v.1.15,2013-08-17 21:46:00,
2013-08-17 16:52:00,90.8,58.6,29.91,NW,323,5.0,5.0,34,0.00,,,0.00,Wunderground v.1.15,2013-08-17 21:52:00,
2013-08-17 16:58:00,90.5,59.1,29.91,NNW,342,5.0,6.0,35,0.00,,,0.00,Wunderground v.1.15,2013-08-17 21:58:00,
2013-08-17 17:04:00,90.4,59.0,29.91,NE,44,6.0,6.0,35,0.00,,,0.00,Wunderground v.1.15,2013-08-17 22:04:00,
2013-08-17 17:10:00,91.0,57.0,29.91,ENE,71,5.0,5.0,32,0.00,,,0.00,Wunderground v.1.15,2013-08-17 22:10:00,
2013-08-17 17:16:00,91.0,57.9,29.91,NE,51,5.0,5.0,33,0.00,,,0.00,Wunderground v.1.15,2013-08-17 22:16:00,
2013-08-17 17:22:00,90.8,57.7,29.90,NNE,13,6.0,9.0,33,0.00,,,0.00,Wunderground v.1.15,2013-08-17 22:22:00,
2013-08-17 17:28:00,90.2,56.4,29.90,NNW,340,6.0,9.0,32,0.00,,,0.00,Wunderground v.1.15,2013-08-17 22:28:00,
2013-08-17 17:34:00,90.5,53.9,29.90,North,356,5.0,8.0,29,0.00,,,0.00,Wunderground v.1.15,2013-08-17 22:34:00,
2013-08-17 17:40:00,90.2,56.4,29.90,NNE,30,8.0,10.0,32,0.00,,,0.00,Wunderground v.1.15,2013-08-17 22:40:00,
2013-08-17 17:46:00,90.0,57.0,29.90,North,360,7.0,10.0,33,0.00,,,0.00,Wunderground v.1.15,2013-08-17 22:46:00,
2013-08-17 17:52:00,90.3,56.4,29.90,NE,37,6.0,8.0,32,0.00,,,0.00,Wunderground v.1.15,2013-08-17 22:52:00,
2013-08-17 17:58:00,90.0,57.0,29.90,NNW,345,7.0,8.0,33,0.00,,,0.00,Wunderground v.1.15,2013-08-17 22:58:00,
2013-08-17 18:04:00,89.9,56.9,29.90,ENE,65,6.0,8.0,33,0.00,,,0.00,Wunderground v.1.15,2013-08-17 23:04:00,
2013-08-17 18:10:00,89.6,56.7,29.90,SE,124,6.0,6.0,33,0.00,,,0.00,Wunderground v.1.15,2013-08-17 23:10:00,
2013-08-17 18:16:00,89.9,55.2,29.90,ENE,58,5.0,6.0,31,0.00,,,0.00,Wunderground v.1.15,2013-08-17 23:16:00,
2013-08-17 18:22:00,89.8,55.1,29.90,ENE,77,5.0,7.0,31,0.00,,,0.00,Wunderground v.1.15,2013-08-17 23:22:00,
2013-08-17 18:28:00,89.4,54.8,29.90,NNE,30,6.0,8.0,31,0.00,,,0.00,Wunderground v.1.15,2013-08-17 23:28:00,
2013-08-17 18:34:00,89.2,56.3,29.90,ESE,113,5.0,6.0,33,0.00,,,0.00,Wunderground v.1.15,2013-08-17 23:34:00,
2013-08-17 18:40:00,89.3,56.4,29.90,North,7,4.0,6.0,33,0.00,,,0.00,Wunderground v.1.15,2013-08-17 23:40:00,
2013-08-17 18:46:00,89.2,57.2,29.90,NE,36,4.0,6.0,34,0.00,,,0.00,Wunderground v.1.15,2013-08-17 23:46:00,
2013-08-17 18:52:00,88.9,57.7,29.90,NNE,30,4.0,4.0,35,0.00,,,0.00,Wunderground v.1.15,2013-08-17 23:52:00,
2013-08-17 18:58:00,88.9,57.7,29.90,NE,46,2.0,4.0,35,0.00,,,0.00,Wunderground v.1.15,2013-08-17 23:58:00,
2013-08-17 19:04:00,88.8,57.6,29.90,NNE,16,2.0,5.0,35,0.00,,,0.00,Wunderground v.1.15,2013-08-18 00:04:00,
2013-08-17 19:10:00,88.1,57.0,29.91,East,86,4.0,4.0,35,0.00,,,0.00,Wunderground v.1.15,2013-08-18 00:10:00,
2013-08-17 19:16:00,87.7,58.2,29.91,NNW,345,4.0,6.0,37,0.00,,,0.00,Wunderground v.1.15,2013-08-18 00:16:00,
2013-08-17 19:22:00,87.3,58.6,29.91,East,94,3.0,4.0,38,0.00,,,0.00,Wunderground v.1.15,2013-08-18 00:22:00,
2013-08-17 19:28:00,87.1,58.4,29.91,NNE,18,2.0,4.0,38,0.00,,,0.00,Wunderground v.1.15,2013-08-18 00:28:00,
2013-08-17 19:34:00,86.7,58.8,29.91,NNE,30,2.0,4.0,39,0.00,,,0.00,Wunderground v.1.15,2013-08-18 00:34:00,
2013-08-17 19:40:00,86.2,59.0,29.91,ESE,110,3.0,4.0,40,0.00,,,0.00,Wunderground v.1.15,2013-08-18 00:40:00,
2013-08-17 19:46:00,85.7,59.3,29.92,ENE,68,2.0,4.0,41,0.00,,,0.00,Wunderground v.1.15,2013-08-18 00:46:00,
2013-08-17 19:52:00,85.2,59.5,29.92,ENE,57,2.0,5.0,42,0.00,,,0.00,Wunderground v.1.15,2013-08-18 00:52:00,
2013-08-17 19:58:00,84.6,59.6,29.92,NE,35,2.0,5.0,43,0.00,,,0.00,Wunderground v.1.15,2013-08-18 00:58:00,
2013-08-17 20:04:00,83.9,59.7,29.92,NNE,29,1.0,4.0,44,0.00,,,0.00,Wunderground v.1.15,2013-08-18 01:04:00,
2013-08-17 20:10:00,83.3,59.7,29.92,NE,56,1.0,4.0,45,0.00,,,0.00,Wunderground v.1.15,2013-08-18 01:10:00,
2013-08-17 20:16:00,82.8,59.3,29.93,NE,36,2.0,4.0,45,0.00,,,0.00,Wunderground v.1.15,2013-08-18 01:16:00,
2013-08-17 20:22:00,82.3,59.4,29.93,NE,39,2.0,4.0,46,0.00,,,0.00,Wunderground v.1.15,2013-08-18 01:22:00,
2013-08-17 20:28:00,81.8,59.0,29.93,NNE,18,1.0,4.0,46,0.00,,,0.00,Wunderground v.1.15,2013-08-18 01:28:00,
2013-08-17 20:34:00,81.4,59.2,29.93,NE,45,1.0,4.0,47,0.00,,,0.00,Wunderground v.1.15,2013-08-18 01:34:00,
2013-08-17 20:40:00,81.0,59.5,29.93,NE,44,1.0,1.0,48,0.00,,,0.00,Wunderground v.1.15,2013-08-18 01:40:00,
2013-08-17 20:46:00,80.7,59.8,29.93,SE,127,1.0,4.0,49,0.00,,,0.00,Wunderground v.1.15,2013-08-18 01:46:00,
2013-08-17 20:52:00,80.4,60.1,29.93,ESE,107,1.0,4.0,50,0.00,,,0.00,Wunderground v.1.15,2013-08-18 01:52:00,
2013-08-17 20:58:00,80.1,60.3,29.94,ESE,106,1.0,4.0,51,0.00,,,0.00,Wunderground v.1.15,2013-08-18 01:58:00,
2013-08-17 21:04:00,80.0,60.2,29.94,ENE,77,1.0,4.0,51,0.00,,,0.00,Wunderground v.1.15,2013-08-18 02:04:00,
2013-08-17 21:10:00,79.8,60.1,29.94,ENE,61,1.0,1.0,51,0.00,,,0.00,Wunderground v.1.15,2013-08-18 02:10:00,
2013-08-17 21:16:00,79.7,60.0,29.94,ENE,77,2.0,4.0,51,0.00,,,0.00,Wunderground v.1.15,2013-08-18 02:16:00,
2013-08-17 21:22:00,79.7,60.0,29.94,NE,40,2.0,4.0,51,0.00,,,0.00,Wunderground v.1.15,2013-08-18 02:22:00,
2013-08-17 21:28:00,79.6,59.9,29.95,ESE,113,2.0,4.0,51,0.00,,,0.00,Wunderground v.1.15,2013-08-18 02:28:00,
2013-08-17 21:34:00,79.5,59.8,29.95,NE,37,2.0,4.0,51,0.00,,,0.00,Wunderground v.1.15,2013-08-18 02:34:00,
2013-08-17 21:40:00,79.3,59.6,29.95,ENE,73,2.0,2.0,51,0.00,,,0.00,Wunderground v.1.15,2013-08-18 02:40:00,
2013-08-17 21:46:00,79.1,59.4,29.95,NE,53,2.0,6.0,51,0.00,,,0.00,Wunderground v.1.15,2013-08-18 02:46:00,
2013-08-17 21:52:00,79.0,59.3,29.95,East,96,2.0,4.0,51,0.00,,,0.00,Wunderground v.1.15,2013-08-18 02:52:00,
2013-08-17 21:58:00,78.8,59.7,29.96,ESE,121,2.0,4.0,52,0.00,,,0.00,Wunderground v.1.15,2013-08-18 02:58:00,
2013-08-17 22:04:00,78.7,59.0,29.96,NE,43,2.0,4.0,51,0.00,,,0.00,Wunderground v.1.15,2013-08-18 03:04:00,
2013-08-17 22:10:00,78.5,58.9,29.96,East,83,2.0,2.0,51,0.00,,,0.00,Wunderground v.1.15,2013-08-18 03:10:00,
2013-08-17 22:16:00,78.3,58.7,29.97,ESE,118,1.0,4.0,51,0.00,,,0.00,Wunderground v.1.15,2013-08-18 03:16:00,
2013-08-17 22:22:00,77.9,58.9,29.97,East,100,1.0,4.0,52,0.00,,,0.00,Wunderground v.1.15,2013-08-18 03:22:00,
2013-08-17 22:28:00,77.6,58.6,29.97,SE,125,0.0,4.0,52,0.00,,,0.00,Wunderground v.1.15,2013-08-18 03:28:00,
2013-08-17 22:34:00,77.3,58.3,29.96,NNE,23,0.0,4.0,52,0.00,,,0.00,Wunderground v.1.15,2013-08-18 03:34:00,
2013-08-17 22:40:00,77.3,58.3,29.97,ESE,105,1.0,1.0,52,0.00,,,0.00,Wunderground v.1.15,2013-08-18 03:40:00,
2013-08-17 22:46:00,77.3,58.3,29.97,East,86,1.0,4.0,52,0.00,,,0.00,Wunderground v.1.15,2013-08-18 03:46:00,
2013-08-17 22:52:00,77.4,58.4,29.97,NE,36,1.0,4.0,52,0.00,,,0.00,Wunderground v.1.15,2013-08-18 03:52:00,
2013-08-17 22:58:00,77.4,57.9,29.97,East,79,1.0,4.0,51,0.00,,,0.00,Wunderground v.1.15,2013-08-18 03:58:00,
2013-08-17 23:02:00,77.4,58.4,29.97,ESE,119,1.0,4.0,52,0.00,,,0.00,Wunderground v.1.15,2013-08-18 04:02:00,
2013-08-17 23:04:00,77.3,58.3,29.97,ESE,115,1.0,4.0,52,0.00,,,0.00,Wunderground v.1.15,2013-08-18 04:04:00,
2013-08-17 23:06:00,77.2,58.2,29.97,East,83,1.0,4.0,52,0.00,,,0.00,Wunderground v.1.15,2013-08-18 04:06:00,
2013-08-17 23:10:00,77.3,58.3,29.97,NE,52,1.0,4.0,52,0.00,,,0.00,Wunderground v.1.15,2013-08-18 04:10:00,
2013-08-17 23:16:00,77.2,58.2,29.97,ENE,71,1.0,4.0,52,0.00,,,0.00,Wunderground v.1.15,2013-08-18 04:16:00,
2013-08-17 23:18:00,77.2,58.2,29.97,ENE,61,1.0,4.0,52,0.00,,,0.00,Wunderground v.1.15,2013-08-18 04:18:00,
2013-08-17 23:24:00,77.0,58.6,29.97,NNE,26,1.0,4.0,53,0.00,,,0.00,Wunderground v.1.15,2013-08-18 04:24:00,
2013-08-17 23:30:00,77.0,58.6,29.97,ESE,117,1.0,4.0,53,0.00,,,0.00,Wunderground v.1.15,2013-08-18 04:30:00,
2013-08-17 23:36:00,76.8,57.8,29.97,ENE,72,1.0,4.0,52,0.00,,,0.00,Wunderground v.1.15,2013-08-18 04:36:00,
2013-08-17 23:42:00,76.8,57.8,29.97,NE,56,1.0,2.0,52,0.00,,,0.00,Wunderground v.1.15,2013-08-18 04:42:00,
2013-08-17 23:48:00,76.8,57.8,29.97,NNE,25,1.0,4.0,52,0.00,,,0.00,Wunderground v.1.15,2013-08-18 04:48:00,
2013-08-17 23:54:00,76.8,57.8,29.97,ESE,110,1.0,4.0,52,0.00,,,0.00,Wunderground v.1.15,2013-08-18 04:54:00,